Regional Weather Roundup
Issued by NWS

Home | Current Version | Previous Version | Graphics & Text | Print | Product List | Glossary On
Versions: 1 2 3 4 5 6 7 8 9 10 11 12 13 14 15 16 17 18 19 20 21 22 23 24 25 26 27 28 29 30 31 32 33 34 35 36 37 38 39 40 41 42 43 44 45 46 47 48 49 50
000
ASUS43 KFSD 271702
RWRSD

WEATHER ROUNDUP FOR SOUTH DAKOTA
NATIONAL WEATHER SERVICE SIOUX FALLS SD
1200 PM CDT THU JUL 27 2017

NOTE: "FAIR" INDICATES FEW OR NO CLOUDS BELOW 12,000 FEET WITH NO
SIGNIFICANT WEATHER AND/OR OBSTRUCTIONS TO VISIBILITY.


SDZ001>005-009-010-012>017-271800-
NORTHWEST AND NORTH CENTRAL SOUTH DAKOTA

CITY           SKY/WX    TMP DP  RH WIND       PRES   REMARKS
BUFFALO          N/A     87  57  35 SE25G32   30.01F
FAITH            N/A     83  56  39 SE17G25   30.11F
MOBRIDGE       SUNNY     80  62  54 SE12      30.11F
$$

SDZ012>016-024>037-041>051-057-063-072>074-271800-
SOUTHWEST AND SOUTH CENTRAL SOUTH DAKOTA

CITY           SKY/WX    TMP DP  RH WIND       PRES   REMARKS
RAPID CTY ARPT PTSUNNY   66  54  65 S18G35    30.16R
PIERRE         SUNNY     83  54  36 SE8       30.11F
CUSTER         TSTM      61  58  90 NW3       30.26S VSB 1
ELLSWORTH AFB  CLOUDY    71  58  64 S23G36    30.14R
PHILIP         MOSUNNY   85  52  32 SE12G22   30.12S
PINE RIDGE     CLOUDY    70  47  43 SE16G25   30.18F
SPEARFISH      LGT RAIN  82  59  44 SE12      30.12F
WINNER         FAIR      84  56  38 SE13      30.14F
$$

SDZ004>011-016>023-039-040-271800-
NORTHEAST SOUTH DAKOTA

CITY           SKY/WX    TMP DP  RH WIND       PRES   REMARKS
ABERDEEN       SUNNY     77  59  53 VRB5      30.14F
WATERTOWN      MOSUNNY   76  58  53 CALM      30.14F
BROOKINGS      SUNNY     75  62  64 NE6       30.15S
SISSETON         N/A     81  59  47 MISG      30.12F
$$

SDZ017-020-022-023-036>040-048>070-271800-
SOUTHEAST SOUTH DAKOTA

CITY           SKY/WX    TMP DP  RH WIND       PRES   REMARKS
SIOUX FALLS    PTSUNNY   80  65  59 NW3       30.13S
HURON            N/A     79  62  56 MISG      30.13F
CHAMBERLAIN    SUNNY     83  63  51 S6        30.14S
MITCHELL       MOSUNNY   79  61  53 VRB3      30.13F
YANKTON        PTSUNNY   79  61  53 E7        30.13S
$$

ABBREVIATIONS USED IN REMARKS
   TC - TEMPERATURE IN CELSIUS
  WCI - WIND CHILL INDEX
   HX - HEAT INDEX
  VSB - VISIBILITY





USA.gov is the U.S. government's official web portal to all federal, state and local government web resources and services.